CST,Max TemperatureF,Mean TemperatureF,Min TemperatureF,Max Dew PointF,MeanDew PointF,Min DewpointF,Max Humidity, Mean Humidity, Min Humidity, Max Sea Level PressureIn, Mean Sea Level PressureIn, Min Sea Level PressureIn, Max VisibilityMiles, Mean VisibilityMiles, Min VisibilityMiles, Max Wind SpeedMPH, Mean Wind SpeedMPH, Max Gust SpeedMPH,PrecipitationIn, CloudCover, Events, WindDirDegrees
2013-2-1,29,18,6,14,3,-4,65,52,40,30.49,30.36,30.18,10,10,10,14,7,17,0.00,3,,220
2013-2-2,39,34,28,31,22,15,84,65,56,30.17,30.13,30.03,10,10,7,13,6,17,0.00,6,Rain,259
2013-2-3,41,36,31,30,20,11,85,56,32,30.25,30.11,29.91,10,10,10,18,8,31,0.00,0,,280
2013-2-4,49,37,25,31,26,21,93,65,46,29.99,29.88,29.80,10,10,7,16,7,21,0.00,1,,332
2013-2-5,53,38,23,32,27,22,97,72,42,30.12,29.98,29.91,10,8,4,14,3,18,0.00,1,,288
2013-2-6,60,44,28,32,29,27,96,60,29,30.16,30.07,29.96,10,10,10,16,7,22,0.00,1,,139
2013-2-7,49,42,35,49,40,32,99,86,51,30.15,29.96,29.88,10,7,2,18,8,24,0.17,8,Rain-Thunderstorm,253
2013-2-8,35,33,31,32,29,27,92,85,74,30.36,30.29,30.15,10,9,7,13,8,21,0.00,8,,25
2013-2-9,49,40,31,36,30,27,92,74,44,30.31,30.13,29.88,10,10,7,15,10,22,0.03,6,Rain,136
2013-2-10,61,50,38,52,36,23,98,69,29,29.88,29.65,29.48,10,9,2,30,15,39,0.27,5,Rain-Thunderstorm,195
2013-2-11,49,41,33,26,24,21,69,56,34,30.15,30.05,29.86,10,10,10,17,11,28,0.00,1,,267
2013-2-12,40,32,25,29,27,24,99,76,57,30.16,30.08,29.96,10,10,2,6,1,,0.00,2,,12
2013-2-13,51,41,31,32,28,25,85,64,37,29.95,29.87,29.81,10,10,10,14,5,18,0.00,0,,227
2013-2-14,50,43,36,32,29,24,74,57,45,30.11,29.96,29.81,10,10,10,15,8,23,0.00,2,,276
2013-2-15,38,31,24,26,15,8,71,52,29,30.33,30.26,30.12,10,10,10,16,10,24,0.00,3,,319
2013-2-16,37,28,19,21,15,12,76,59,35,30.31,30.22,30.13,10,10,10,12,5,17,0.00,3,,279
2013-2-17,56,42,28,29,23,18,67,47,30,30.13,29.97,29.78,10,10,10,18,9,22,0.00,2,,140
2013-2-18,57,43,29,51,33,18,95,65,50,30.01,29.72,29.50,10,10,2,23,13,31,0.31,5,Rain-Thunderstorm,202
2013-2-19,32,28,22,19,11,5,68,53,35,30.33,30.20,30.02,10,10,10,22,13,30,0.00,0,,294
2013-2-20,28,22,15,13,9,5,68,58,47,30.41,30.32,30.24,10,10,10,12,6,,0.00,2,,39
2013-2-21,28,26,23,28,21,13,99,83,61,30.25,29.98,29.78,10,4,0,22,11,30,0.78,8,Snow-Thunderstorm,89
2013-2-22,32,26,18,32,22,15,99,81,65,30.07,29.95,29.77,10,9,3,14,7,21,0.01,6,,246
2013-2-23,33,21,9,18,14,8,95,76,49,30.07,30.03,29.98,10,8,2,6,3,,0.00,0,,202
2013-2-24,46,28,11,24,19,10,95,67,37,30.08,30.02,29.96,10,9,5,10,3,,0.00,0,,87
2013-2-25,41,33,25,33,26,22,99,73,52,30.03,29.88,29.62,10,9,1,25,9,34,0.28,3,Rain-Snow,51
2013-2-26,34,33,32,33,33,32,100,98,94,29.77,29.55,29.40,10,3,0,15,10,23,0.39,8,Rain-Snow,348
2013-2-27,32,31,30,32,29,25,99,90,78,29.96,29.86,29.76,10,4,1,16,10,25,0.00,8,Snow,286
2013-2-28,34,31,28,26,24,23,80,75,70,30.15,30.08,29.96,10,10,7,16,9,21,0.00,8,Snow,301